Time,TemperatureF,DewpointF,PressureIn,WindDirection,WindDirectionDegrees,WindSpeedMPH,WindSpeedGustMPH,Humidity,HourlyPrecipIn,Conditions,Clouds,dailyrainin,SoftwareType,DateUTC
2013-03-18 00:12:00,9.0,-99.9,-100.00,North,-999,-999.0,-999.0,-999,-99.99,,,0.77,,2013-03-18 06:12:00,
2013-03-18 00:22:00,9.0,-99.9,-100.00,North,-999,-999.0,-999.0,-999,-99.99,,,0.77,,2013-03-18 06:22:00,
2013-03-18 00:32:00,9.0,-99.9,-100.00,North,-999,-999.0,-999.0,-999,-99.99,,,0.77,,2013-03-18 06:32:00,
2013-03-18 00:42:00,9.0,-99.9,-100.00,North,-999,-999.0,-999.0,-999,-99.99,,,0.77,,2013-03-18 06:42:00,
2013-03-18 01:13:00,9.0,-99.9,-100.00,North,-999,-999.0,-999.0,-999,0.00,,,0.77,,2013-03-18 07:13:00,
2013-03-18 01:23:00,9.0,-99.9,-100.00,North,-999,-999.0,-999.0,-999,0.00,,,0.77,,2013-03-18 07:23:00,
2013-03-18 01:33:00,9.0,-99.9,-100.00,North,-999,-999.0,-999.0,-999,0.00,,,0.77,,2013-03-18 07:33:00,
2013-03-18 01:43:00,9.0,-99.9,-100.00,North,-999,-999.0,-999.0,-999,0.00,,,0.77,,2013-03-18 07:43:00,
2013-03-18 02:13:00,6.0,-99.9,-100.00,North,-999,-999.0,-999.0,-999,0.00,,,0.77,,2013-03-18 08:13:00,
2013-03-18 02:22:00,6.0,-99.9,-100.00,North,-999,-999.0,-999.0,-999,0.00,,,0.77,,2013-03-18 08:22:00,
2013-03-18 02:33:00,6.0,-99.9,-100.00,North,-999,-999.0,-999.0,-999,0.00,,,0.77,,2013-03-18 08:33:00,
2013-03-18 02:43:00,6.0,-99.9,-100.00,North,-999,-999.0,-999.0,-999,0.00,,,0.77,,2013-03-18 08:43:00,
2013-03-18 03:23:00,4.0,-99.9,-100.00,North,-999,-999.0,-999.0,-999,0.00,,,0.75,,2013-03-18 09:23:00,
2013-03-18 03:33:00,4.0,-99.9,-100.00,North,-999,-999.0,-999.0,-999,0.00,,,0.75,,2013-03-18 09:33:00,
2013-03-18 03:43:00,4.0,-99.9,-100.00,North,-999,-999.0,-999.0,-999,0.00,,,0.75,,2013-03-18 09:43:00,
2013-03-18 04:13:00,6.0,-99.9,-100.00,North,-999,-999.0,-999.0,-999,0.00,,,0.71,,2013-03-18 10:13:00,
2013-03-18 04:23:00,6.0,-99.9,-100.00,North,-999,-999.0,-999.0,-999,0.00,,,0.71,,2013-03-18 10:23:00,
2013-03-18 04:33:00,6.0,-99.9,-100.00,North,-999,-999.0,-999.0,-999,0.00,,,0.71,,2013-03-18 10:33:00,
2013-03-18 04:42:00,6.0,-99.9,-100.00,North,-999,-999.0,-999.0,-999,0.00,,,0.71,,2013-03-18 10:42:00,
2013-03-18 05:13:00,7.0,-99.9,-100.00,North,-999,-999.0,-999.0,-999,0.00,,,0.51,,2013-03-18 11:13:00,
2013-03-18 05:22:00,7.0,-99.9,-100.00,North,-999,-999.0,-999.0,-999,0.00,,,0.51,,2013-03-18 11:22:00,
2013-03-18 05:32:00,7.0,-99.9,-100.00,North,-999,-999.0,-999.0,-999,0.00,,,0.51,,2013-03-18 11:32:00,
2013-03-18 05:43:00,7.0,-99.9,-100.00,North,-999,-999.0,-999.0,-999,0.00,,,0.51,,2013-03-18 11:43:00,
2013-03-18 06:13:00,8.0,-99.9,-100.00,North,-999,-999.0,-999.0,-999,0.00,,,0.52,,2013-03-18 12:13:00,
2013-03-18 06:22:00,8.0,-99.9,-100.00,North,-999,-999.0,-999.0,-999,0.00,,,0.52,,2013-03-18 12:22:00,
2013-03-18 06:33:00,8.0,-99.9,-100.00,North,-999,-999.0,-999.0,-999,0.00,,,0.52,,2013-03-18 12:33:00,
2013-03-18 06:43:00,8.0,-99.9,-100.00,North,-999,-999.0,-999.0,-999,0.00,,,0.52,,2013-03-18 12:43:00,
2013-03-18 07:13:00,9.0,-99.9,-100.00,North,-999,-999.0,-999.0,-999,0.00,,,0.52,,2013-03-18 13:13:00,
2013-03-18 07:23:00,9.0,-99.9,-100.00,North,-999,-999.0,-999.0,-999,0.00,,,0.52,,2013-03-18 13:23:00,
2013-03-18 07:33:00,9.0,-99.9,-100.00,North,-999,-999.0,-999.0,-999,0.00,,,0.52,,2013-03-18 13:33:00,
2013-03-18 07:43:00,9.0,-99.9,-100.00,North,-999,-999.0,-999.0,-999,0.00,,,0.52,,2013-03-18 13:43:00,
2013-03-18 08:13:00,8.0,-99.9,-100.00,North,-999,-999.0,-999.0,-999,0.00,,,0.49,,2013-03-18 14:13:00,
2013-03-18 08:22:00,8.0,-99.9,-100.00,North,-999,-999.0,-999.0,-999,0.00,,,0.49,,2013-03-18 14:22:00,
2013-03-18 08:32:00,8.0,-99.9,-100.00,North,-999,-999.0,-999.0,-999,0.00,,,0.49,,2013-03-18 14:32:00,
2013-03-18 08:43:00,8.0,-99.9,-100.00,North,-999,-999.0,-999.0,-999,0.00,,,0.49,,2013-03-18 14:43:00,
2013-03-18 09:23:00,11.0,-99.9,-100.00,North,-999,-999.0,-999.0,-999,0.00,,,0.49,,2013-03-18 15:23:00,
2013-03-18 09:33:00,11.0,-99.9,-100.00,North,-999,-999.0,-999.0,-999,0.00,,,0.49,,2013-03-18 15:33:00,
2013-03-18 09:43:00,11.0,-99.9,-100.00,North,-999,-999.0,-999.0,-999,0.00,,,0.49,,2013-03-18 15:43:00,
2013-03-18 10:23:00,16.0,-99.9,-100.00,North,-999,-999.0,-999.0,-999,0.00,,,0.38,,2013-03-18 16:23:00,
2013-03-18 10:33:00,16.0,-99.9,-100.00,North,-999,-999.0,-999.0,-999,0.00,,,0.38,,2013-03-18 16:33:00,
2013-03-18 10:43:00,16.0,-99.9,-100.00,North,-999,-999.0,-999.0,-999,0.00,,,0.38,,2013-03-18 16:43:00,
2013-03-18 11:22:00,20.0,-99.9,-100.00,North,-999,-999.0,-999.0,-999,0.00,,,0.14,,2013-03-18 17:22:00,
2013-03-18 11:33:00,20.0,-99.9,-100.00,North,-999,-999.0,-999.0,-999,0.00,,,0.14,,2013-03-18 17:33:00,
2013-03-18 11:43:00,20.0,-99.9,-100.00,North,-999,-999.0,-999.0,-999,0.00,,,0.14,,2013-03-18 17:43:00,
2013-03-18 12:13:00,21.0,-99.9,-100.00,North,-999,-999.0,-999.0,-999,0.00,,,0.07,,2013-03-18 18:13:00,
2013-03-18 12:22:00,21.0,-99.9,-100.00,North,-999,-999.0,-999.0,-999,0.00,,,0.07,,2013-03-18 18:22:00,
2013-03-18 12:32:00,21.0,-99.9,-100.00,North,-999,-999.0,-999.0,-999,0.00,,,0.07,,2013-03-18 18:32:00,
2013-03-18 12:42:00,21.0,-99.9,-100.00,North,-999,-999.0,-999.0,-999,0.00,,,0.07,,2013-03-18 18:42:00,
2013-03-18 13:12:00,24.0,-99.9,-100.00,North,-999,-999.0,-999.0,-999,0.00,,,0.00,,2013-03-18 19:12:00,
2013-03-18 13:22:00,24.0,-99.9,-100.00,North,-999,-999.0,-999.0,-999,0.00,,,0.00,,2013-03-18 19:22:00,
2013-03-18 13:33:00,24.0,-99.9,-100.00,North,-999,-999.0,-999.0,-999,0.00,,,0.00,,2013-03-18 19:33:00,
2013-03-18 13:42:00,24.0,-99.9,-100.00,North,-999,-999.0,-999.0,-999,0.00,,,0.00,,2013-03-18 19:42:00,
2013-03-18 14:12:00,26.0,-99.9,-100.00,North,-999,-999.0,-999.0,-999,0.00,,,0.00,,2013-03-18 20:12:00,
2013-03-18 14:23:00,26.0,-99.9,-100.00,North,-999,-999.0,-999.0,-999,0.00,,,0.00,,2013-03-18 20:23:00,
2013-03-18 14:33:00,26.0,-99.9,-100.00,North,-999,-999.0,-999.0,-999,0.00,,,0.00,,2013-03-18 20:33:00,
2013-03-18 14:43:00,26.0,-99.9,-100.00,North,-999,-999.0,-999.0,-999,0.00,,,0.00,,2013-03-18 20:43:00,
2013-03-18 15:12:00,26.0,-99.9,-100.00,North,-999,-999.0,-999.0,-999,0.00,,,0.00,,2013-03-18 21:12:00,
2013-03-18 15:23:00,26.0,-99.9,-100.00,North,-999,-999.0,-999.0,-999,0.00,,,0.00,,2013-03-18 21:23:00,
2013-03-18 15:33:00,26.0,-99.9,-100.00,North,-999,-999.0,-999.0,-999,0.00,,,0.00,,2013-03-18 21:33:00,
2013-03-18 15:43:00,26.0,-99.9,-100.00,North,-999,-999.0,-999.0,-999,0.00,,,0.00,,2013-03-18 21:43:00,
2013-03-18 16:13:00,27.0,-99.9,-100.00,North,-999,-999.0,-999.0,-999,0.00,,,0.00,,2013-03-18 22:13:00,
2013-03-18 16:23:00,27.0,-99.9,-100.00,North,-999,-999.0,-999.0,-999,0.00,,,0.00,,2013-03-18 22:23:00,
2013-03-18 16:34:00,27.0,-99.9,-100.00,North,-999,-999.0,-999.0,-999,0.00,,,0.00,,2013-03-18 22:34:00,
2013-03-18 16:43:00,27.0,-99.9,-100.00,North,-999,-999.0,-999.0,-999,0.00,,,0.00,,2013-03-18 22:43:00,
2013-03-18 17:13:00,29.0,-99.9,-100.00,North,-999,-999.0,-999.0,-999,0.00,,,0.00,,2013-03-18 23:13:00,
2013-03-18 17:23:00,29.0,-99.9,-100.00,North,-999,-999.0,-999.0,-999,0.00,,,0.00,,2013-03-18 23:23:00,
2013-03-18 17:33:00,29.0,-99.9,-100.00,North,-999,-999.0,-999.0,-999,0.00,,,0.00,,2013-03-18 23:33:00,
2013-03-18 17:43:00,29.0,-99.9,-100.00,North,-999,-999.0,-999.0,-999,0.00,,,0.00,,2013-03-18 23:43:00,
2013-03-18 18:13:00,26.0,-99.9,-100.00,North,-999,-999.0,-999.0,-999,0.00,,,0.00,,2013-03-19 00:13:00,
2013-03-18 18:23:00,26.0,-99.9,-100.00,North,-999,-999.0,-999.0,-999,0.00,,,0.00,,2013-03-19 00:23:00,
2013-03-18 18:33:00,26.0,-99.9,-100.00,North,-999,-999.0,-999.0,-999,0.00,,,0.00,,2013-03-19 00:33:00,
2013-03-18 18:43:00,26.0,-99.9,-100.00,North,-999,-999.0,-999.0,-999,0.00,,,0.00,,2013-03-19 00:43:00,
2013-03-18 19:12:00,25.0,-99.9,-100.00,North,-999,-999.0,-999.0,-999,0.00,,,0.00,,2013-03-19 01:12:00,
2013-03-18 19:23:00,25.0,-99.9,-100.00,North,-999,-999.0,-999.0,-999,0.00,,,0.00,,2013-03-19 01:23:00,
2013-03-18 19:33:00,25.0,-99.9,-100.00,North,-999,-999.0,-999.0,-999,0.00,,,0.00,,2013-03-19 01:33:00,
2013-03-18 19:43:00,25.0,-99.9,-100.00,North,-999,-999.0,-999.0,-999,0.00,,,0.00,,2013-03-19 01:43:00,
2013-03-18 20:23:00,24.0,-99.9,-100.00,North,-999,-999.0,-999.0,-999,0.00,,,0.00,,2013-03-19 02:23:00,
2013-03-18 20:33:00,24.0,-99.9,-100.00,North,-999,-999.0,-999.0,-999,0.00,,,0.00,,2013-03-19 02:33:00,
2013-03-18 21:13:00,24.0,-99.9,-100.00,North,-999,-999.0,-999.0,-999,0.00,,,0.00,,2013-03-19 03:13:00,
2013-03-18 21:23:00,24.0,-99.9,-100.00,North,-999,-999.0,-999.0,-999,0.00,,,0.00,,2013-03-19 03:23:00,
2013-03-18 21:33:00,24.0,-99.9,-100.00,North,-999,-999.0,-999.0,-999,0.00,,,0.00,,2013-03-19 03:33:00,
2013-03-18 21:44:00,24.0,-99.9,-100.00,North,-999,-999.0,-999.0,-999,0.00,,,0.00,,2013-03-19 03:44:00,
2013-03-18 22:14:00,25.0,-99.9,-100.00,North,-999,-999.0,-999.0,-999,0.02,,,0.02,,2013-03-19 04:14:00,
2013-03-18 22:23:00,25.0,-99.9,-100.00,North,-999,-999.0,-999.0,-999,0.02,,,0.02,,2013-03-19 04:23:00,
2013-03-18 22:34:00,25.0,-99.9,-100.00,North,-999,-999.0,-999.0,-999,0.02,,,0.02,,2013-03-19 04:34:00,
2013-03-18 22:43:00,25.0,-99.9,-100.00,North,-999,-999.0,-999.0,-999,0.02,,,0.02,,2013-03-19 04:43:00,
2013-03-18 23:12:00,22.0,-99.9,-100.00,North,-999,-999.0,-999.0,-999,0.00,,,0.02,,2013-03-19 05:12:00,
2013-03-18 23:22:00,22.0,-99.9,-100.00,North,-999,-999.0,-999.0,-999,0.00,,,0.02,,2013-03-19 05:22:00,
2013-03-18 23:33:00,22.0,-99.9,-100.00,North,-999,-999.0,-999.0,-999,0.00,,,0.02,,2013-03-19 05:33:00,
2013-03-18 23:43:00,22.0,-99.9,-100.00,North,-999,-999.0,-999.0,-999,0.00,,,0.02,,2013-03-19 05:43:00,